User: anonymous   Login
Location: D�derode
(51.8092°N, 10.1065°E)
Time: 03:52:22
(UTC+00:00)
Language:

deb NNS O-19 - Orbit

View from above orbital plane
View from above orbital plane
View from above satellite
View from above satellite

Ground track
Ground track

The orbit data is extracted from the following two-line orbital elements,

1 05036U 70067C   21165.30015956  .00000029  00000-0  77969-5 0  9992
2 05036  89.8855 268.9734 0024988 188.0407 172.0387 14.21059997596079
Epoch (UTC): 14 June 2021 07:12:13
Eccentricity: 0.0024988
inclination: 89.8855°
perigee height: 804 km
apogee height: 840 km
right ascension of ascending node: 268.9734°
argument of perigee: 188.0407°
revolutions per day: 14.21059997
mean anomaly at epoch: 172.0387°
orbit number at epoch: 59607

The dashed part of the orbit path shows where the satellite is in the earth's shadow,  

DLR